AFL783 ULLI-URMM

Flight info

Callsign AFL783
Flight time N/A
Altitude 41000
Route SUGIN1D SUGIN DCT NIRGI DCT OLEGI T834 BEKIP DCT BULAT L4 UPERI T833 TOGMO M56 ABAGI/K0870F350 W21 WGD/K0895F410 A927 SL DCT SUBED DCT LIDUS/K0898F400 G242 ZG/K0907F410 DCT ITAKA/K0904F400 DCT AMKOL DCT GOTIK DCT MEMZA A962 OKARU OKARU5B
Aircraft A359/H-SDE2E3GHIJ3J4J5LM1ORWXY/LB1D1

Departure

Time 2026-05-07 13:54
Airport Pulkovo Airport (ULLI)

Arrival

Time N/A
Airport Mineralnye Vody Airport (URMM)
Time Latitude Longitude Altitude Speed Heading
2026-05-07 13:05 59.80190 30.26898 0 ft 0 kts 106°
2026-05-07 13:37 59.80191 30.26897 0 ft 1 kts 106°
2026-05-07 13:37 59.80195 30.26862 33 ft 4 kts 72°
2026-05-07 13:37 59.80193 30.26849 51 ft 4 kts 24°
2026-05-07 13:38 59.80181 30.26839 56 ft 4 kts 73°
2026-05-07 13:38 59.80179 30.26812 56 ft 4 kts 91°
2026-05-07 13:38 59.80180 30.26759 86 ft 4 kts 91°
2026-05-07 13:38 59.80180 30.26749 85 ft 0 kts 91°
2026-05-07 13:41 59.80181 30.26723 86 ft 4 kts 91°
2026-05-07 13:42 59.80181 30.26692 84 ft 3 kts 90°
2026-05-07 13:44 59.80184 30.26707 84 ft 4 kts 72°
2026-05-07 13:45 59.80214 30.26743 85 ft 7 kts 14°
2026-05-07 13:45 59.80295 30.26772 84 ft 16 kts
2026-05-07 13:45 59.80378 30.26795 86 ft 8 kts 358°
2026-05-07 13:45 59.80423 30.26700 85 ft 13 kts 288°
2026-05-07 13:46 59.80430 30.26654 82 ft 3 kts 287°
2026-05-07 13:46 59.80436 30.26617 85 ft 3 kts 287°
2026-05-07 13:46 59.80438 30.26602 86 ft 0 kts 287°
2026-05-07 13:46 59.80440 30.26593 85 ft 4 kts 287°
2026-05-07 13:47 59.80458 30.26477 82 ft 14 kts 287°
2026-05-07 13:47 59.80488 30.26267 84 ft 20 kts 286°
2026-05-07 13:47 59.80507 30.26131 86 ft 6 kts 286°
2026-05-07 13:47 59.80520 30.26047 86 ft 0 kts 286°
2026-05-07 13:48 59.80524 30.26016 84 ft 7 kts 286°
2026-05-07 13:48 59.80548 30.25861 86 ft 16 kts 287°
2026-05-07 13:48 59.80566 30.25744 85 ft 3 kts 287°
2026-05-07 13:49 59.80581 30.25641 85 ft 13 kts 286°
2026-05-07 13:49 59.80613 30.25417 84 ft 16 kts 286°
2026-05-07 13:49 59.80638 30.25246 83 ft 17 kts 286°
2026-05-07 13:49 59.80675 30.24995 84 ft 8 kts 286°
2026-05-07 13:50 59.80678 30.24977 86 ft 4 kts 286°
2026-05-07 13:50 59.80697 30.24851 84 ft 14 kts 286°
2026-05-07 13:50 59.80740 30.24636 83 ft 9 kts 319°
2026-05-07 13:50 59.80760 30.24612 86 ft 7 kts 332°
2026-05-07 13:51 59.80833 30.24577 85 ft 1 kts 348°
2026-05-07 13:52 59.80862 30.24564 83 ft 10 kts 347°
2026-05-07 13:52 59.80952 30.24581 83 ft 16 kts 38°
2026-05-07 13:52 59.80965 30.24632 84 ft 6 kts 83°
2026-05-07 13:53 59.80949 30.24744 84 ft 0 kts 108°
2026-05-07 13:54 59.80913 30.24964 84 ft 54 kts 108°
2026-05-07 13:54 59.80723 30.26234 86 ft 134 kts 106°
2026-05-07 13:54 59.80416 30.28343 452 ft 170 kts 106°
2026-05-07 13:54 59.80084 30.30641 1355 ft 178 kts 107°
2026-05-07 13:55 59.79698 30.33213 1875 ft 214 kts 107°
2026-05-07 13:55 59.79236 30.36254 2499 ft 243 kts 107°
2026-05-07 13:55 59.78742 30.39520 3568 ft 249 kts 107°
2026-05-07 13:55 59.78245 30.42855 4694 ft 255 kts 107°
2026-05-07 13:56 59.77738 30.46257 5770 ft 260 kts 107°
2026-05-07 13:56 59.77216 30.49725 6779 ft 264 kts 107°
2026-05-07 13:56 59.76682 30.53253 7745 ft 269 kts 107°
2026-05-07 13:56 59.76149 30.56785 8669 ft 273 kts 107°
2026-05-07 13:57 59.75614 30.60422 9557 ft 277 kts 105°
2026-05-07 13:57 59.75090 30.64137 10348 ft 284 kts 105°
2026-05-07 13:57 59.74536 30.68046 10723 ft 305 kts 106°
2026-05-07 13:57 59.73940 30.72230 11083 ft 325 kts 106°
2026-05-07 13:58 59.73315 30.76595 11693 ft 333 kts 106°
2026-05-07 13:58 59.72678 30.81022 12424 ft 337 kts 106°
2026-05-07 13:58 59.72032 30.85509 13117 ft 340 kts 106°
2026-05-07 13:58 59.71374 30.90050 13766 ft 344 kts 106°
2026-05-07 13:59 59.70710 30.94627 14401 ft 348 kts 106°
2026-05-07 13:59 59.70037 30.99251 15019 ft 351 kts 106°
2026-05-07 13:59 59.69355 31.03921 15616 ft 354 kts 106°
2026-05-07 13:59 59.68667 31.08628 16199 ft 357 kts 106°
2026-05-07 14:00 59.67973 31.13411 16543 ft 368 kts 109°
2026-05-07 14:00 59.67242 31.18370 16702 ft 384 kts 110°
2026-05-07 14:00 59.66470 31.23556 16834 ft 400 kts 110°
2026-05-07 14:00 59.65680 31.28865 17341 ft 403 kts 110°
2026-05-07 14:01 59.64899 31.34122 17853 ft 405 kts 110°
2026-05-07 14:01 59.64097 31.39501 18276 ft 410 kts 110°
2026-05-07 14:01 59.63280 31.44961 18612 ft 417 kts 111°
2026-05-07 14:01 59.62457 31.50453 19161 ft 417 kts 111°
2026-05-07 14:02 59.61631 31.55948 19598 ft 420 kts 111°
2026-05-07 14:02 59.60792 31.61498 20034 ft 422 kts 111°
2026-05-07 14:02 59.59949 31.67062 20433 ft 425 kts 111°
2026-05-07 14:02 59.59096 31.72674 20798 ft 428 kts 111°
2026-05-07 14:03 59.58233 31.78327 21167 ft 431 kts 111°
2026-05-07 14:03 59.57364 31.84004 21544 ft 434 kts 111°
2026-05-07 14:03 59.56487 31.89722 21888 ft 436 kts 111°
2026-05-07 14:03 59.55902 31.93520 22108 ft 438 kts 112°
2026-05-07 14:04 59.55013 31.99275 22441 ft 441 kts 112°
2026-05-07 14:04 59.54035 32.05004 22748 ft 440 kts 117°
2026-05-07 14:04 59.52711 32.10375 23071 ft 435 kts 127°
2026-05-07 14:04 59.50973 32.15228 23386 ft 429 kts 137°
2026-05-07 14:05 59.48981 32.19590 23697 ft 428 kts 141°
2026-05-07 14:05 59.46895 32.23762 23990 ft 428 kts 143°
2026-05-07 14:05 59.44757 32.27861 24283 ft 430 kts 143°
2026-05-07 14:05 59.42598 32.31946 24567 ft 431 kts 143°
2026-05-07 14:06 59.40435 32.36048 24870 ft 433 kts 143°
2026-05-07 14:06 59.38271 32.40179 25144 ft 436 kts 143°
2026-05-07 14:06 59.36098 32.44351 25505 ft 440 kts 143°
2026-05-07 14:06 59.33908 32.48571 26144 ft 442 kts 143°
2026-05-07 14:07 59.31718 32.52801 26806 ft 445 kts 143°
2026-05-07 14:07 59.29503 32.57073 27395 ft 448 kts 143°
2026-05-07 14:07 59.27272 32.61369 27944 ft 453 kts 143°
2026-05-07 14:07 59.25017 32.65700 28478 ft 456 kts 143°
2026-05-07 14:08 59.22744 32.70060 29023 ft 459 kts 143°
2026-05-07 14:08 59.20450 32.74449 29547 ft 462 kts 143°
2026-05-07 14:08 59.18149 32.78842 30044 ft 466 kts 143°
2026-05-07 14:08 59.15816 32.83286 30502 ft 470 kts 143°
2026-05-07 14:09 59.13474 32.87739 30960 ft 473 kts 143°
2026-05-07 14:09 59.11103 32.92238 31402 ft 477 kts 143°
2026-05-07 14:09 59.08756 32.96684 31820 ft 480 kts 143°
2026-05-07 14:09 59.06348 33.01233 32241 ft 483 kts 143°
2026-05-07 14:10 59.03932 33.05792 32604 ft 487 kts 144°
2026-05-07 14:10 59.01487 33.10392 32942 ft 491 kts 144°
2026-05-07 14:10 58.99027 33.15009 33330 ft 494 kts 144°
2026-05-07 14:10 58.96549 33.19654 33696 ft 496 kts 144°
2026-05-07 14:11 58.94062 33.24305 34029 ft 499 kts 144°
2026-05-07 14:11 58.91554 33.28987 34372 ft 501 kts 143°
2026-05-07 14:11 58.89045 33.33659 34716 ft 503 kts 143°
2026-05-07 14:11 58.86519 33.38357 35161 ft 502 kts 143°
2026-05-07 14:12 58.84006 33.43022 35603 ft 501 kts 143°
2026-05-07 14:12 58.81496 33.47673 36017 ft 500 kts 143°
2026-05-07 14:12 58.78990 33.52302 36413 ft 499 kts 143°
2026-05-07 14:12 58.76484 33.56920 36777 ft 499 kts 143°
2026-05-07 14:13 58.73962 33.61556 37103 ft 500 kts 143°
2026-05-07 14:13 58.71448 33.66168 37425 ft 500 kts 142°
2026-05-07 14:13 58.68930 33.70776 37764 ft 500 kts 142°
2026-05-07 14:13 58.66403 33.75393 38074 ft 500 kts 142°
2026-05-07 14:14 58.63883 33.79987 38424 ft 499 kts 142°
2026-05-07 14:14 58.61366 33.84566 38730 ft 499 kts 142°
2026-05-07 14:14 58.58849 33.89138 38981 ft 499 kts 142°
2026-05-07 14:14 58.56323 33.93715 39270 ft 499 kts 142°
2026-05-07 14:15 58.53806 33.98267 39586 ft 498 kts 142°
2026-05-07 14:15 58.51279 34.02828 39906 ft 497 kts 142°
2026-05-07 14:15 58.48768 34.07352 40210 ft 496 kts 142°
2026-05-07 14:15 58.46260 34.11859 40475 ft 495 kts 142°
2026-05-07 14:16 58.43753 34.16356 40735 ft 495 kts 142°
2026-05-07 14:16 58.41238 34.20855 40979 ft 495 kts 142°
2026-05-07 14:16 58.38753 34.25290 41041 ft 498 kts 142°
2026-05-07 14:17 58.33672 34.34331 41047 ft 500 kts 142°
2026-05-07 14:17 58.28587 34.43351 41047 ft 500 kts 142°
2026-05-07 14:18 58.23496 34.52344 41045 ft 500 kts 142°
2026-05-07 14:18 58.18140 34.60623 41048 ft 494 kts 150°
2026-05-07 14:19 58.12469 34.67938 41046 ft 493 kts 151°
2026-05-07 14:19 58.06749 34.75077 41048 ft 492 kts 152°
2026-05-07 14:20 58.01028 34.82191 41035 ft 493 kts 151°
2026-05-07 14:20 57.95295 34.89323 41015 ft 494 kts 151°
2026-05-07 14:21 57.89557 34.96458 41013 ft 494 kts 151°
2026-05-07 14:21 57.83814 35.03570 41012 ft 494 kts 151°
2026-05-07 14:22 57.78072 35.10651 41012 ft 494 kts 151°
2026-05-07 14:22 57.72323 35.17711 41014 ft 494 kts 151°
2026-05-07 14:23 57.66570 35.24751 41029 ft 494 kts 151°
2026-05-07 14:23 57.60810 35.31770 41030 ft 494 kts 151°
2026-05-07 14:24 57.55053 35.38760 41029 ft 494 kts 151°
2026-05-07 14:24 57.49327 35.45685 41012 ft 494 kts 152°
2026-05-07 14:25 57.43559 35.52634 41018 ft 494 kts 152°
2026-05-07 14:25 57.37790 35.59559 41014 ft 494 kts 152°
2026-05-07 14:26 57.32014 35.66465 41027 ft 494 kts 152°
2026-05-07 14:26 57.26266 35.73440 41031 ft 495 kts 150°
2026-05-07 14:27 57.20634 35.80761 41031 ft 496 kts 149°
2026-05-07 14:27 57.15010 35.88113 41028 ft 495 kts 149°
2026-05-07 14:28 57.09364 35.95390 41026 ft 495 kts 149°
2026-05-07 14:28 57.03706 36.02609 41015 ft 495 kts 150°
2026-05-07 14:29 56.98040 36.09801 41013 ft 495 kts 150°
2026-05-07 14:29 56.92375 36.16966 41014 ft 495 kts 150°
2026-05-07 14:30 56.86746 36.24058 40935 ft 495 kts 149°
2026-05-07 14:30 56.81085 36.31171 40887 ft 493 kts 149°
2026-05-07 14:31 56.75664 36.38923 40886 ft 496 kts 143°
2026-05-07 14:31 56.70415 36.47099 40884 ft 496 kts 143°
2026-05-07 14:32 56.65135 36.55166 40883 ft 496 kts 144°
2026-05-07 14:32 56.59797 36.63088 40883 ft 495 kts 144°
2026-05-07 14:33 56.54130 36.70085 40884 ft 492 kts 151°
2026-05-07 14:33 56.48342 36.76677 40882 ft 492 kts 152°
2026-05-07 14:34 56.42532 36.83209 40880 ft 492 kts 152°
2026-05-07 14:34 56.36724 36.89741 40887 ft 492 kts 152°
2026-05-07 14:35 56.30919 36.96268 40885 ft 492 kts 152°
2026-05-07 14:35 56.25108 37.02783 40880 ft 492 kts 152°
2026-05-07 14:36 56.19291 37.09282 40883 ft 492 kts 152°
2026-05-07 14:36 56.13468 37.15762 40878 ft 492 kts 152°
2026-05-07 14:37 56.07645 37.22219 40881 ft 492 kts 152°
2026-05-07 14:37 55.98939 37.31830 40885 ft 492 kts 152°
2026-05-07 14:38 55.93104 37.38241 40887 ft 492 kts 152°
2026-05-07 14:38 55.87276 37.44623 40886 ft 492 kts 152°
2026-05-07 14:39 55.81449 37.50980 40885 ft 492 kts 152°
2026-05-07 14:39 55.75614 37.57325 40884 ft 491 kts 152°
2026-05-07 14:40 55.69780 37.63640 40878 ft 490 kts 151°
2026-05-07 14:40 55.63962 37.69919 40884 ft 489 kts 151°
2026-05-07 14:41 55.58002 37.75735 40881 ft 488 kts 155°
2026-05-07 14:41 55.51974 37.81246 40885 ft 488 kts 155°
2026-05-07 14:42 55.45991 37.86767 40881 ft 488 kts 155°
2026-05-07 14:42 55.39988 37.92373 40888 ft 488 kts 154°
2026-05-07 14:43 55.34047 37.98358 40884 ft 490 kts 150°
2026-05-07 14:43 55.28384 38.04898 40887 ft 491 kts 149°
2026-05-07 14:44 55.22679 38.11479 40886 ft 490 kts 149°
2026-05-07 14:44 55.16940 38.17924 40882 ft 490 kts 150°
2026-05-07 14:45 55.11177 38.24301 40885 ft 490 kts 150°
2026-05-07 14:45 55.05414 38.30646 40884 ft 490 kts 150°
2026-05-07 14:46 54.99636 38.36993 40885 ft 490 kts 150°
2026-05-07 14:46 54.93865 38.43314 40885 ft 490 kts 150°
2026-05-07 14:47 54.88090 38.49618 40885 ft 490 kts 150°
2026-05-07 14:47 54.82308 38.55909 40886 ft 490 kts 150°
2026-05-07 14:48 54.76532 38.62170 40883 ft 490 kts 150°
2026-05-07 14:48 54.71732 38.67359 40884 ft 490 kts 150°
2026-05-07 14:49 54.64963 38.74650 40887 ft 490 kts 150°
2026-05-07 14:49 54.59172 38.80865 40886 ft 490 kts 150°
2026-05-07 14:50 54.53371 38.87064 40888 ft 491 kts 150°
2026-05-07 14:50 54.48545 38.92211 40884 ft 491 kts 150°
2026-05-07 14:51 54.41789 38.99405 40882 ft 492 kts 149°
2026-05-07 14:51 54.36525 39.06917 40886 ft 495 kts 136°
2026-05-07 14:52 54.31822 39.15541 40882 ft 496 kts 134°
2026-05-07 14:52 54.27951 39.22899 40886 ft 496 kts 133°
2026-05-07 14:53 54.23365 39.31582 40885 ft 496 kts 134°
2026-05-07 14:53 54.18718 39.40282 40883 ft 496 kts 134°
2026-05-07 14:54 54.14052 39.48954 40882 ft 496 kts 134°
2026-05-07 14:54 54.09383 39.57598 40887 ft 496 kts 134°
2026-05-07 14:55 54.04706 39.66226 40884 ft 495 kts 134°
2026-05-07 14:55 54.00025 39.74833 40883 ft 495 kts 134°
2026-05-07 14:56 53.95339 39.83416 40887 ft 495 kts 134°
2026-05-07 14:56 53.90648 39.91983 40884 ft 495 kts 134°
2026-05-07 14:57 53.85951 40.00529 40887 ft 495 kts 134°
2026-05-07 14:57 53.81241 40.09068 40885 ft 495 kts 135°
2026-05-07 14:58 53.76530 40.17578 40886 ft 495 kts 135°
2026-05-07 14:58 53.71847 40.26009 40880 ft 495 kts 135°
2026-05-07 14:59 53.67126 40.34479 40886 ft 495 kts 135°
2026-05-07 14:59 53.62396 40.42933 40885 ft 495 kts 135°
2026-05-07 15:00 53.57669 40.51350 40962 ft 494 kts 134°
2026-05-07 15:00 53.52953 40.59723 40968 ft 492 kts 134°
2026-05-07 15:01 53.48247 40.68051 40965 ft 491 kts 134°
2026-05-07 15:01 53.43536 40.76357 40967 ft 491 kts 135°
2026-05-07 15:02 53.38822 40.84641 40965 ft 491 kts 135°
2026-05-07 15:02 53.34095 40.92916 40966 ft 491 kts 135°
2026-05-07 15:03 53.29367 41.01167 40967 ft 491 kts 135°
2026-05-07 15:03 53.24633 41.09399 40966 ft 491 kts 135°
2026-05-07 15:04 53.19893 41.17614 40965 ft 491 kts 135°
2026-05-07 15:04 53.15143 41.25818 40968 ft 491 kts 135°
2026-05-07 15:05 53.10393 41.33994 40968 ft 491 kts 135°
2026-05-07 15:05 53.05639 41.42150 40968 ft 491 kts 135°
2026-05-07 15:06 53.00874 41.50296 40965 ft 491 kts 135°
2026-05-07 15:06 52.96144 41.58357 40965 ft 491 kts 135°
2026-05-07 15:07 52.91374 41.66457 40968 ft 491 kts 135°
2026-05-07 15:07 52.86594 41.74547 40965 ft 491 kts 135°
2026-05-07 15:08 52.81807 41.82623 40966 ft 491 kts 135°
2026-05-07 15:08 52.77015 41.90680 40967 ft 491 kts 135°
2026-05-07 15:09 52.72221 41.98715 40966 ft 491 kts 135°
2026-05-07 15:09 52.67420 42.06733 40965 ft 491 kts 136°
2026-05-07 15:10 52.62613 42.14734 40938 ft 490 kts 136°
2026-05-07 15:10 52.57836 42.22661 40939 ft 486 kts 136°
2026-05-07 15:11 52.53095 42.30499 40939 ft 481 kts 135°
2026-05-07 15:11 52.48384 42.38261 40939 ft 478 kts 135°
2026-05-07 15:12 52.43692 42.45966 40933 ft 477 kts 134°
2026-05-07 15:12 52.38992 42.53666 40939 ft 479 kts 134°
2026-05-07 15:13 52.34275 42.61371 40938 ft 480 kts 134°
2026-05-07 15:13 52.29548 42.69067 40939 ft 480 kts 134°
2026-05-07 15:14 52.24815 42.76746 40939 ft 480 kts 134°
2026-05-07 15:14 52.20107 42.84358 40939 ft 480 kts 134°
2026-05-07 15:15 52.15361 42.92008 40939 ft 480 kts 134°
2026-05-07 15:15 52.10611 42.99641 40939 ft 480 kts 134°
2026-05-07 15:16 52.05855 43.07258 40938 ft 480 kts 135°
2026-05-07 15:16 52.01096 43.14856 40939 ft 480 kts 135°
2026-05-07 15:17 51.96329 43.22444 40939 ft 480 kts 135°
2026-05-07 15:17 51.91559 43.30012 40938 ft 480 kts 135°
2026-05-07 15:18 51.86785 43.37564 40939 ft 480 kts 135°
2026-05-07 15:18 51.82006 43.45098 40939 ft 480 kts 135°
2026-05-07 15:19 51.77221 43.52619 40939 ft 480 kts 135°
2026-05-07 15:19 51.72435 43.60120 40938 ft 480 kts 135°
2026-05-07 15:20 51.67639 43.67607 40938 ft 479 kts 135°
2026-05-07 15:20 51.62889 43.75005 40939 ft 478 kts 135°
2026-05-07 15:21 51.58109 43.82427 40939 ft 478 kts 135°
2026-05-07 15:21 51.53325 43.89831 40939 ft 478 kts 135°
2026-05-07 15:22 51.48538 43.97218 40939 ft 477 kts 135°
2026-05-07 15:22 51.43744 44.04593 40939 ft 477 kts 135°
2026-05-07 15:23 51.38944 44.11953 40938 ft 477 kts 135°
2026-05-07 15:23 51.34142 44.19294 40939 ft 477 kts 135°
2026-05-07 15:24 51.29335 44.26621 40939 ft 477 kts 135°
2026-05-07 15:24 51.24520 44.33938 40939 ft 478 kts 135°
2026-05-07 15:25 51.19512 44.40787 40939 ft 479 kts 145°
2026-05-07 15:25 51.13464 44.45215 40939 ft 482 kts 164°
2026-05-07 15:26 51.06790 44.46222 40940 ft 485 kts 180°
2026-05-07 15:26 51.00032 44.45636 40938 ft 487 kts 182°
2026-05-07 15:27 50.93266 44.44866 40939 ft 487 kts 182°
2026-05-07 15:27 50.86502 44.44163 40939 ft 487 kts 182°
2026-05-07 15:28 50.79739 44.43521 40939 ft 487 kts 182°
2026-05-07 15:28 50.72976 44.42900 40939 ft 487 kts 182°
2026-05-07 15:29 50.66209 44.42279 40939 ft 487 kts 182°
2026-05-07 15:29 50.59438 44.41657 40939 ft 487 kts 182°
2026-05-07 15:30 50.52669 44.41036 40938 ft 486 kts 182°
2026-05-07 15:30 50.45925 44.40417 40939 ft 485 kts 182°
2026-05-07 15:31 50.39191 44.39802 40939 ft 485 kts 182°
2026-05-07 15:31 50.32461 44.39189 40939 ft 485 kts 182°
2026-05-07 15:32 50.25719 44.38577 40938 ft 485 kts 182°
2026-05-07 15:32 50.19024 44.37970 40939 ft 485 kts 182°
2026-05-07 15:33 50.12283 44.37361 40939 ft 485 kts 182°
2026-05-07 15:33 50.05540 44.36754 40939 ft 485 kts 182°
2026-05-07 15:34 49.98807 44.36149 40939 ft 485 kts 182°
2026-05-07 15:34 49.92065 44.35546 40939 ft 485 kts 182°
2026-05-07 15:35 49.85327 44.34944 40939 ft 485 kts 182°
2026-05-07 15:35 49.78584 44.34343 40939 ft 485 kts 182°
2026-05-07 15:36 49.71848 44.33745 40939 ft 485 kts 182°
2026-05-07 15:36 49.65112 44.33149 40939 ft 484 kts 182°
2026-05-07 15:37 49.58378 44.32554 40939 ft 484 kts 182°
2026-05-07 15:37 49.51693 44.32226 40939 ft 484 kts 178°
2026-05-07 15:38 49.44965 44.32518 40942 ft 486 kts 177°
2026-05-07 15:38 49.38147 44.32841 40937 ft 494 kts 177°
2026-05-07 15:39 49.31248 44.33063 40937 ft 495 kts 178°
2026-05-07 15:39 49.24379 44.33232 40940 ft 491 kts 178°
2026-05-07 15:40 49.18700 44.33365 40939 ft 490 kts 178°
2026-05-07 15:40 49.11887 44.33528 40939 ft 490 kts 178°
2026-05-07 15:41 49.05060 44.33695 40939 ft 490 kts 178°
2026-05-07 15:41 48.98239 44.33861 40939 ft 490 kts 178°
2026-05-07 15:42 48.91420 44.34028 40939 ft 490 kts 178°
2026-05-07 15:42 48.84676 44.35166 40939 ft 487 kts 164°
2026-05-07 15:43 48.78501 44.39229 40939 ft 484 kts 145°
2026-05-07 15:43 48.73615 44.46038 40939 ft 481 kts 126°
2026-05-07 15:44 48.69980 44.54616 40938 ft 481 kts 120°
2026-05-07 15:44 48.66614 44.63367 40939 ft 481 kts 120°
2026-05-07 15:45 48.63236 44.72103 40939 ft 481 kts 120°
2026-05-07 15:45 48.59836 44.80728 40939 ft 481 kts 120°
2026-05-07 15:46 48.54649 44.93718 40939 ft 481 kts 121°
2026-05-07 15:47 48.51190 45.02353 40939 ft 481 kts 121°
2026-05-07 15:47 48.47726 45.10983 40939 ft 481 kts 121°
2026-05-07 15:48 48.44254 45.19606 40939 ft 481 kts 121°
2026-05-07 15:48 48.40245 45.27652 40940 ft 482 kts 135°
2026-05-07 15:49 48.34837 45.33605 40942 ft 485 kts 151°
2026-05-07 15:49 48.28803 45.38178 40938 ft 486 kts 154°
2026-05-07 15:50 48.22692 45.42545 40939 ft 486 kts 154°
2026-05-07 15:50 48.16592 45.46931 40939 ft 486 kts 154°
2026-05-07 15:51 48.10507 45.51351 40939 ft 486 kts 154°
2026-05-07 15:51 48.04459 45.55753 40939 ft 486 kts 154°
2026-05-07 15:52 47.98372 45.60172 40939 ft 486 kts 154°
2026-05-07 15:52 47.92282 45.64579 40939 ft 486 kts 154°
2026-05-07 15:53 47.86192 45.68973 40939 ft 486 kts 154°
2026-05-07 15:53 47.80101 45.73356 40939 ft 486 kts 154°
2026-05-07 15:54 47.74010 45.77728 40939 ft 486 kts 154°
2026-05-07 15:54 47.67913 45.82092 40939 ft 486 kts 154°
2026-05-07 15:55 47.61816 45.86446 40939 ft 486 kts 154°
2026-05-07 15:55 47.55726 45.90783 40939 ft 486 kts 154°
2026-05-07 15:56 47.49612 45.95126 40939 ft 486 kts 154°
2026-05-07 15:56 47.43547 45.99423 40939 ft 486 kts 154°
2026-05-07 15:57 47.37443 46.03738 40939 ft 486 kts 154°
2026-05-07 15:57 47.31346 46.08051 40939 ft 486 kts 154°
2026-05-07 15:58 47.25246 46.12359 40939 ft 486 kts 154°
2026-05-07 15:58 47.19145 46.16658 41031 ft 486 kts 154°
2026-05-07 15:59 47.13056 46.20936 41015 ft 485 kts 155°
2026-05-07 15:59 47.07143 46.25675 41031 ft 486 kts 144°
2026-05-07 16:00 47.02310 46.32603 41014 ft 490 kts 126°
2026-05-07 16:00 46.98521 46.40913 41013 ft 492 kts 123°
2026-05-07 16:01 46.94917 46.49358 41031 ft 492 kts 123°
2026-05-07 16:01 46.91274 46.57839 41027 ft 492 kts 123°
2026-05-07 16:02 46.87595 46.66273 41011 ft 492 kts 123°
2026-05-07 16:02 46.83901 46.74676 41028 ft 492 kts 123°
2026-05-07 16:03 46.80193 46.83079 41027 ft 492 kts 123°
2026-05-07 16:03 46.76486 46.91462 41014 ft 492 kts 123°
2026-05-07 16:04 46.72770 46.99840 41015 ft 492 kts 123°
2026-05-07 16:04 46.69052 47.08202 41015 ft 492 kts 124°
2026-05-07 16:05 46.65376 47.16603 41030 ft 492 kts 123°
2026-05-07 16:05 46.61727 47.25011 41025 ft 492 kts 123°
2026-05-07 16:06 46.58060 47.33417 41013 ft 492 kts 123°
2026-05-07 16:06 46.54386 47.41795 41014 ft 492 kts 123°
2026-05-07 16:07 46.50703 47.50159 41028 ft 492 kts 123°
2026-05-07 16:07 46.47034 47.58468 41027 ft 492 kts 123°
2026-05-07 16:08 46.43339 47.66810 41012 ft 492 kts 123°
2026-05-07 16:08 46.39635 47.75151 40933 ft 492 kts 124°
2026-05-07 16:09 46.35927 47.83472 40912 ft 492 kts 124°
2026-05-07 16:09 46.32205 47.91801 40911 ft 492 kts 124°
2026-05-07 16:10 46.28737 48.00331 40911 ft 494 kts 115°
2026-05-07 16:10 46.26714 48.09819 40910 ft 495 kts 104°
2026-05-07 16:11 46.25213 48.19529 40912 ft 496 kts 103°
2026-05-07 16:11 46.23774 48.29273 40912 ft 496 kts 103°
2026-05-07 16:12 46.22334 48.39023 40912 ft 496 kts 103°
2026-05-07 16:12 46.20897 48.48760 40912 ft 496 kts 103°
2026-05-07 16:12 46.19627 48.53235 41431 ft 463 kts 134°
2026-05-07 16:13 46.17321 48.55484 44219 ft 348 kts 179°
2026-05-07 16:13 46.15107 48.55406 45830 ft 306 kts 197°
2026-05-07 16:13 46.12959 48.54866 44883 ft 330 kts 190°
2026-05-07 16:13 46.10482 48.54372 42948 ft 386 kts 188°
2026-05-07 16:14 46.07607 48.54328 40382 ft 448 kts 171°
2026-05-07 16:14 46.04459 48.55423 38455 ft 479 kts 161°
2026-05-07 16:14 46.01307 48.56964 37659 ft 487 kts 165°
2026-05-07 16:14 45.98007 48.58057 36323 ft 498 kts 171°
2026-05-07 16:15 45.94562 48.58694 35277 ft 497 kts 176°
2026-05-07 16:15 45.91125 48.58667 34586 ft 491 kts 184°
2026-05-07 16:15 45.87771 48.58040 34269 ft 482 kts 188°
2026-05-07 16:16 45.81174 48.56377 34580 ft 484 kts 189°
2026-05-07 16:16 45.77895 48.55178 34815 ft 488 kts 195°
2026-05-07 16:16 45.74640 48.53701 35064 ft 492 kts 197°
2026-05-07 16:16 45.71394 48.52112 35317 ft 494 kts 198°
2026-05-07 16:17 45.68142 48.50460 35563 ft 497 kts 198°
2026-05-07 16:17 45.64893 48.48790 35757 ft 498 kts 198°
2026-05-07 16:17 45.61633 48.47115 36086 ft 495 kts 198°
2026-05-07 16:17 45.58411 48.45469 36704 ft 488 kts 198°
2026-05-07 16:18 45.55232 48.43856 37226 ft 483 kts 198°
2026-05-07 16:18 45.52077 48.42264 37685 ft 479 kts 198°
2026-05-07 16:18 45.48943 48.40690 38147 ft 475 kts 198°
2026-05-07 16:18 45.45836 48.39135 38529 ft 472 kts 199°
2026-05-07 16:19 45.42743 48.37589 38851 ft 470 kts 199°
2026-05-07 16:19 45.39659 48.36050 39125 ft 470 kts 199°
2026-05-07 16:19 45.36567 48.34509 39307 ft 471 kts 200°
2026-05-07 16:19 45.33464 48.32961 39479 ft 473 kts 200°
2026-05-07 16:20 45.30403 48.31433 39693 ft 472 kts 200°
2026-05-07 16:20 45.27298 48.29886 39921 ft 472 kts 200°
2026-05-07 16:20 45.24155 48.28322 40127 ft 472 kts 200°
2026-05-07 16:20 45.21104 48.26805 40359 ft 472 kts 200°
2026-05-07 16:21 45.18007 48.25268 40561 ft 472 kts 200°
2026-05-07 16:21 45.14902 48.23730 40744 ft 471 kts 200°
2026-05-07 16:21 45.11807 48.22198 40898 ft 473 kts 200°
2026-05-07 16:22 45.05581 48.19121 40912 ft 475 kts 200°
2026-05-07 16:22 44.99348 48.16049 40912 ft 474 kts 200°
2026-05-07 16:23 44.93104 48.12978 40911 ft 474 kts 200°
2026-05-07 16:23 44.86864 48.09916 40910 ft 474 kts 200°
2026-05-07 16:24 44.80628 48.06863 40911 ft 474 kts 200°
2026-05-07 16:24 44.74390 48.03816 40912 ft 475 kts 200°
2026-05-07 16:25 44.68152 48.00776 40910 ft 474 kts 200°
2026-05-07 16:25 44.61916 47.97744 40912 ft 474 kts 200°
2026-05-07 16:26 44.55677 47.94718 40911 ft 475 kts 200°
2026-05-07 16:26 44.49432 47.91695 40911 ft 475 kts 200°
2026-05-07 16:27 44.43231 47.88700 40912 ft 475 kts 200°
2026-05-07 16:27 44.36990 47.85693 40911 ft 475 kts 200°
2026-05-07 16:28 44.30738 47.82688 40912 ft 475 kts 200°
2026-05-07 16:28 44.24503 47.79699 41071 ft 473 kts 200°
2026-05-07 16:29 44.18291 47.76725 41077 ft 471 kts 200°